Regional Weather Roundup
Issued by NWS Charleston, SC

Current Version | Previous Version | Text Only | Print | Product List | Glossary Off
Versions: 1 2 3 4 5 6 7 8 9 10 11 12 13 14 15 16 17 18 19 20 21 22 23 24 25 26 27 28 29 30 31 32 33 34 35 36 37 38 39 40 41 42 43 44 45 46 47 48 49 50
000 ASUS42 KCHS 021327 RWRCHS REGIONAL WEATHER ROUNDUP NATIONAL WEATHER SERVICE CHARLESTON SC 800 AM EST FRI DEC 02 2016 NOTE: "FAIR" INDICATES FEW OR NO CLOUDS BELOW 12,000 FEET WITH NO SIGNIFICANT WEATHER AND/OR OBSTRUCTIONS TO VISIBILITY. NOT ALL STATIONS ARE QUALITY CONTROLLED. USE DATA WITH CAUTION... ESPECIALLY DEWPOINT OBSERVATIONS. SCZ027-030-031-034>040-042>050-021400- ...SOUTHEAST SOUTH CAROLINA... CITY SKY/WX TMP DP RH WIND PRES REMARKS N CHARLESTON CLOUDY 43 37 79 N5 30.14R WATERFRONT PRK N/A 45 39 79 VRB3 30.13R MOUNT PLEASANT FAIR 45 37 76 N5 30.15R JOHNS ISLAND FAIR 46 39 76 NW6 30.15R PINOPOLIS N/A 48 41 76 NE10 30.07R MONCKS CORNER FAIR 46 36 66 N7 30.16R SUMMERVILLE FAIR 39 39 100 N3 30.17R BEAUFORT MCAS PTCLDY 45 36 70 NW5 30.16R BEAUFORT ARPT FAIR 45 36 70 NW9 30.16R HILTON HEAD IS CLEAR 45 36 70 W3 30.17R WALTERBORO SUNNY 41 N/A N/A CALM 30.18R ALLENDALE FAIR 43 36 75 CALM 30.17R ...SOUTHERN MIDLANDS AND PEE DEE... CITY SKY/WX TMP DP RH WIND PRES REMARKS GEORGETOWN NOT AVBL KINGSTREE FAIR 37 36 93 CALM 30.17R ORANGEBURG CLEAR 39 35 86 N3 30.17R BARNWELL NOT AVBL AIKEN FAIR 37 34 87 CALM 30.20R MANNING NOT AVBL COLUMBIA PTCLDY 38 34 85 W3 30.17R SUMTER CLEAR 40 34 79 N6 30.14R WCI 36 FLORENCE CLEAR 41 37 86 NW5 30.16R MYRTLE BEACH CLEAR 45 36 70 N6 30.15R N MYRTLE BEACH CLEAR 43 36 75 N7 30.12R $$ GAZ063-065-086>088-099>101-113>116-118-119-134>141-150-021400- ...SOUTHEAST GEORGIA... CITY SKY/WX TMP DP RH WIND PRES REMARKS SAVANNAH ARPT PTCLDY 41 35 79 W6 30.17R HUNTER AAF CLEAR 42 38 85 NW7 30.14R FORT STEWART CLEAR 42 34 75 CALM 30.16R STATESBORO PTCLDY 45 38 75 N7 30.19R SYLVANIA SUNNY N/A N/A N/A NW5 30.19R CLAXTON FAIR 42 39 89 W3 30.20R ...CSRA...CENTRAL AND FAR SOUTHEAST GEORGIA... CITY SKY/WX TMP DP RH WIND PRES REMARKS THOMSON CLEAR 36 36 100 CALM 30.23R AUGUSTA-BUSH CLEAR 36 33 89 CALM 30.18R AUGUSTA-DANIEL CLEAR 43 32 65 NW8 30.18R SWAINSBORO FAIR 39 34 81 NW3 30.20R VIDALIA CLEAR 45 37 76 NW5 30.21R EASTMAN FAIR 40 29 64 CALM 30.24R HAZLEHURST FAIR 45 38 76 CALM 30.20R ALMA PTCLDY 41 36 82 NW6 30.19R WAYCROSS CLOUDY 47 40 78 N6 30.20R JESUP FAIR 45 37 76 N8 30.19S BAXLEY FAIR 45 37 76 NW5 30.20R BRUNSWICK PTCLDY 43 39 87 NW5 30.19R SAINT SIMONS CLEAR 47 35 63 VRB6 30.18R $$ SCZ027-028-034-036>038-045-046-048>050-GAZ119-141-021400- ...LAKE AND SUPPLEMENTAL COASTAL OBSERVATIONS... STATION/POSITION TIME TEMP WIND PRES WAVE SWELL AIR SEA DIR/SP/G HT/PER HT/PER/DIR (UTC) (F) (DEG/KT/KT) (MB) (FT/S) (FT/S/D) WINYAH BAY 1230 45 360/ 5 1019.0R LAKE MURRAY 1220 42 310/ 2/ 4 1020.7 ACE BASIN NERRS 1245 42 310/ 1 1020.0S FORT PULASKI 1300 46 63 330/ 11/ 13 1021.5 SAPELO ISLAND 1300 46 320/ 6 1022.0 $$ ANZ835-935-AMZ111-154-330-350-352-354-370-450-454-472-021400- ...C-MAN AND BUOY OBSERVATIONS... STATION/POSITION TIME TEMP WIND PRES WAVE SWELL AIR SEA DIR/SP/G HT/PER HT/PER/DIR (UTC) (F) (DEG/KT/KT) (MB) (FT/S) (FT/S/D) BUOY 41004 1250 58 74 340/ 8/ 12 1019.3R 4/ 5 3/240/ 5 BUOY 41008 1250 55 65 340/ 14/ 17 1020.7R 3/ 4 2/150/ 9 FOLLY BEACH CMAN 1300 46 330/ 6/ 8 1020.9R CAPERS NEARSHORE 1308 48 63 360/ 8/ 10 1020.2R FRIPP NEARSHORE 1308 49 63 330/ 12/ 16 1020.5R STATION/POSITION TIME TEMP WIND PRES WAVE SWELL AIR SEA DIR/SP/G HT/PER HT/PER/DIR (UTC) (F) (DEG/KT/KT) (MB) (FT/S) (FT/S/D) 5E ST. MARYS GA 1300 67 N/A 4/ 5 FRYING PAN BUOY 1310 58 75 20/ 14/ 17 1018.9 BUOY 41025 1250 57 76 360/ 14/ 19 1017.6R 4/ 9 2/150/ 9 CAPE LOOKOUT NC 1300 47 350/ 11/ 16 1018.5R BUOY 41002 1250 71 74 310/ 14/ 17 1016.5R 6/ 7 3/260/ 7 BUOY 41010 NOT AVBL ST AUGUSTINE FL 1300 53 67 320/ 8/ 10 1022.4R $$

USA.gov is the U.S. government's official web portal to all federal, state and local government web resources and services.